Location: Unspecified
(41.5000°N, 0.0000°E)
Time: 09:07:29
(UTC+00:00)

Vanguard 3 - Pass Details

Date: 22 June 2019
Orbit: 507 x 3264 km, 33.4° (Epoch: 17 July)

Event Time Altitude Azimuth Distance (km) Brightness Sun altitude
Rises 16:31:43 0° 267° (W) 3,784 11.7 31.8°
Reaches altitude 10° 16:36:04 10° 244° (WSW) 2,354 10.6 31.0°
Maximum altitude 16:38:44 14° 213° (SSW) 1,844 9.5 30.5°
Drops below altitude 10° 16:41:00 10° 181° (S) 1,923 9.1 30.1°
Sets 16:43:56 0° 153° (SSE) 2,653 9.5 29.6°
